Time,TemperatureF,DewpointF,PressureIn,WindDirection,WindDirectionDegrees,WindSpeedMPH,WindSpeedGustMPH,Humidity,HourlyPrecipIn,Conditions,Clouds,dailyrainin,SoftwareType,DateUTC
2013-02-17 00:02:00,-13.4,-23.3,29.51,WSW,240,0.0,0.0,60,0.00,,,0.00,Weather View 32 v70,2013-02-17 09:02:00,
2013-02-17 00:07:00,-13.3,-23.2,29.51,WSW,240,0.0,0.0,60,0.00,,,0.00,Weather View 32 v70,2013-02-17 09:07:00,
2013-02-17 00:12:00,-13.2,-23.1,29.51,WSW,240,0.0,0.0,60,0.00,,,0.00,Weather View 32 v70,2013-02-17 09:12:00,
2013-02-17 00:17:00,-13.1,-22.7,29.50,WSW,240,0.0,0.0,61,0.00,,,0.00,Weather View 32 v70,2013-02-17 09:17:00,
2013-02-17 00:22:00,-13.0,-22.6,29.50,WSW,240,0.0,0.0,61,0.00,,,0.00,Weather View 32 v70,2013-02-17 09:22:00,
2013-02-17 00:27:00,-12.7,-22.0,29.50,WSW,240,0.0,1.0,62,0.00,,,0.00,Weather View 32 v70,2013-02-17 09:27:00,
2013-02-17 00:32:00,-12.3,-21.6,29.51,WSW,240,0.0,1.0,62,0.00,,,0.00,Weather View 32 v70,2013-02-17 09:32:00,
2013-02-17 00:37:00,-12.0,-21.3,29.50,WSW,240,0.0,1.0,62,0.00,,,0.00,Weather View 32 v70,2013-02-17 09:37:00,
2013-02-17 00:42:00,-11.7,-21.0,29.50,WSW,240,0.0,1.0,62,0.00,,,0.00,Weather View 32 v70,2013-02-17 09:42:00,
2013-02-17 00:47:00,-11.4,-20.8,29.50,WSW,240,0.0,1.0,62,0.00,,,0.00,Weather View 32 v70,2013-02-17 09:47:00,
2013-02-17 00:52:00,-11.1,-20.2,29.50,WSW,240,0.0,1.0,63,0.00,,,0.00,Weather View 32 v70,2013-02-17 09:52:00,
2013-02-17 00:57:00,-11.0,-20.1,29.50,WSW,240,0.0,1.0,63,0.00,,,0.00,Weather View 32 v70,2013-02-17 09:57:00,
2013-02-17 01:02:00,-10.9,-20.0,29.49,WSW,240,0.0,1.0,63,0.00,,,0.00,Weather View 32 v70,2013-02-17 10:02:00,
2013-02-17 01:07:00,-10.7,-20.1,29.49,WSW,240,0.0,1.0,62,0.00,,,0.00,Weather View 32 v70,2013-02-17 10:07:00,
2013-02-17 01:12:00,-10.5,-19.6,29.49,WSW,240,0.0,1.0,63,0.00,,,0.00,Weather View 32 v70,2013-02-17 10:12:00,
2013-02-17 01:17:00,-10.3,-19.4,29.50,WSW,240,0.0,1.0,63,0.00,,,0.00,Weather View 32 v70,2013-02-17 10:17:00,
2013-02-17 01:22:00,-10.0,-19.1,29.50,WSW,240,0.0,1.0,63,0.00,,,0.00,Weather View 32 v70,2013-02-17 10:22:00,
2013-02-17 01:27:00,-9.9,-19.0,29.50,WSW,240,0.0,0.0,63,0.00,,,0.00,Weather View 32 v70,2013-02-17 10:27:00,
2013-02-17 01:32:00,-9.7,-18.8,29.50,WSW,240,0.0,0.0,63,0.00,,,0.00,Weather View 32 v70,2013-02-17 10:32:00,
2013-02-17 01:37:00,-9.4,-18.2,29.49,WSW,240,0.0,0.0,64,0.00,,,0.00,Weather View 32 v70,2013-02-17 10:37:00,
2013-02-17 01:42:00,-9.1,-18.0,29.49,WSW,240,0.0,0.0,64,0.00,,,0.00,Weather View 32 v70,2013-02-17 10:42:00,
2013-02-17 01:47:00,-8.8,-17.7,29.49,WSW,240,0.0,0.0,64,0.00,,,0.00,Weather View 32 v70,2013-02-17 10:47:00,
2013-02-17 01:52:00,-8.5,-17.4,29.50,WSW,240,0.0,0.0,64,0.00,,,0.00,Weather View 32 v70,2013-02-17 10:52:00,
2013-02-17 01:57:00,-8.2,-16.8,29.49,WSW,240,0.0,0.0,65,0.00,,,0.00,Weather View 32 v70,2013-02-17 10:57:00,
2013-02-17 02:02:00,-7.9,-16.5,29.49,WSW,240,0.0,0.0,65,0.00,,,0.00,Weather View 32 v70,2013-02-17 11:02:00,
2013-02-17 02:07:00,-7.7,-16.3,29.49,WSW,240,0.0,0.0,65,0.00,,,0.00,Weather View 32 v70,2013-02-17 11:07:00,
2013-02-17 02:12:00,-7.3,-15.9,29.49,WSW,240,0.0,0.0,65,0.00,,,0.00,Weather View 32 v70,2013-02-17 11:12:00,
2013-02-17 02:17:00,-7.0,-15.3,29.49,WSW,240,0.0,0.0,66,0.00,,,0.00,Weather View 32 v70,2013-02-17 11:17:00,
2013-02-17 02:22:00,-6.6,-15.0,29.49,WSW,240,0.0,0.0,66,0.00,,,0.00,Weather View 32 v70,2013-02-17 11:22:00,
2013-02-17 02:27:00,-6.3,-14.7,29.49,WSW,240,0.0,1.0,66,0.00,,,0.00,Weather View 32 v70,2013-02-17 11:27:00,
2013-02-17 02:32:00,-6.1,-14.8,29.49,WSW,240,0.0,1.0,65,0.00,,,0.00,Weather View 32 v70,2013-02-17 11:32:00,
2013-02-17 02:37:00,-6.0,-14.7,29.49,WSW,240,0.0,1.0,65,0.00,,,0.00,Weather View 32 v70,2013-02-17 11:37:00,
2013-02-17 02:42:00,-6.0,-14.7,29.49,WSW,240,0.0,1.0,65,0.00,,,0.00,Weather View 32 v70,2013-02-17 11:42:00,
2013-02-17 02:47:00,-6.0,-14.7,29.48,WSW,240,0.0,1.0,65,0.00,,,0.00,Weather View 32 v70,2013-02-17 11:47:00,
2013-02-17 02:52:00,-5.9,-14.6,29.49,WSW,240,0.0,1.0,65,0.00,,,0.00,Weather View 32 v70,2013-02-17 11:52:00,
2013-02-17 02:57:00,-5.8,-14.5,29.48,WSW,240,0.0,1.0,65,0.00,,,0.00,Weather View 32 v70,2013-02-17 11:57:00,
2013-02-17 03:01:00,-5.8,-14.5,29.49,WSW,240,0.0,1.0,65,0.00,,,0.00,Weather View 32 v70,2013-02-17 12:01:00,
2013-02-17 03:06:00,-5.8,-14.5,29.48,WSW,240,0.0,1.0,65,0.00,,,0.00,Weather View 32 v70,2013-02-17 12:06:00,
2013-02-17 03:11:00,-5.8,-14.5,29.48,WSW,240,0.0,1.0,65,0.00,,,0.00,Weather View 32 v70,2013-02-17 12:11:00,
2013-02-17 03:16:00,-5.8,-14.5,29.48,WSW,240,0.0,1.0,65,0.00,,,0.00,Weather View 32 v70,2013-02-17 12:16:00,
2013-02-17 03:21:00,-5.9,-14.9,29.48,WSW,240,0.0,1.0,64,0.00,,,0.00,Weather View 32 v70,2013-02-17 12:21:00,
2013-02-17 03:26:00,-6.0,-15.0,29.48,WSW,240,0.0,1.0,64,0.00,,,0.00,Weather View 32 v70,2013-02-17 12:26:00,
2013-02-17 03:31:00,-6.4,-15.4,29.48,WSW,240,0.0,1.0,64,0.00,,,0.00,Weather View 32 v70,2013-02-17 12:31:00,
2013-02-17 03:36:00,-6.5,-15.8,29.48,WSW,240,0.0,1.0,63,0.00,,,0.00,Weather View 32 v70,2013-02-17 12:36:00,
2013-02-17 03:41:00,-6.8,-16.1,29.48,WSW,240,0.0,1.0,63,0.00,,,0.00,Weather View 32 v70,2013-02-17 12:41:00,
2013-02-17 03:46:00,-7.1,-16.4,29.47,WSW,240,0.0,1.0,63,0.00,,,0.00,Weather View 32 v70,2013-02-17 12:46:00,
2013-02-17 03:51:00,-7.5,-16.7,29.47,WSW,240,0.0,1.0,63,0.00,,,0.00,Weather View 32 v70,2013-02-17 12:51:00,
2013-02-17 03:56:00,-7.7,-16.9,29.48,WSW,240,0.0,0.0,63,0.00,,,0.00,Weather View 32 v70,2013-02-17 12:56:00,
2013-02-17 04:01:00,-7.9,-17.1,29.47,WSW,240,0.0,2.0,63,0.00,,,0.00,Weather View 32 v70,2013-02-17 13:01:00,
2013-02-17 04:06:00,-7.9,-17.1,29.47,WSW,240,0.0,2.0,63,0.00,,,0.00,Weather View 32 v70,2013-02-17 13:06:00,
2013-02-17 04:11:00,-7.9,-17.1,29.48,WSW,240,0.0,2.0,63,0.00,,,0.00,Weather View 32 v70,2013-02-17 13:11:00,
2013-02-17 04:16:00,-7.9,-16.8,29.47,WSW,240,0.0,2.0,64,0.00,,,0.00,Weather View 32 v70,2013-02-17 13:16:00,
2013-02-17 04:21:00,-7.9,-16.8,29.47,WSW,240,0.0,2.0,64,0.00,,,0.00,Weather View 32 v70,2013-02-17 13:21:00,
2013-02-17 04:26:00,-7.8,-16.7,29.48,WSW,240,0.0,2.0,64,0.00,,,0.00,Weather View 32 v70,2013-02-17 13:26:00,
2013-02-17 04:31:00,-7.6,-16.5,29.47,WSW,240,0.0,2.0,64,0.00,,,0.00,Weather View 32 v70,2013-02-17 13:31:00,
2013-02-17 04:36:00,-7.4,-16.0,29.48,WSW,240,0.0,2.0,65,0.00,,,0.00,Weather View 32 v70,2013-02-17 13:36:00,
2013-02-17 04:41:00,-7.2,-15.8,29.48,WSW,240,0.0,2.0,65,0.00,,,0.00,Weather View 32 v70,2013-02-17 13:41:00,
2013-02-17 04:46:00,-7.0,-15.6,29.47,WSW,240,0.0,2.0,65,0.00,,,0.00,Weather View 32 v70,2013-02-17 13:46:00,
2013-02-17 04:51:00,-6.9,-15.6,29.48,WSW,240,0.0,2.0,65,0.00,,,0.00,Weather View 32 v70,2013-02-17 13:51:00,
2013-02-17 04:56:00,-6.9,-15.6,29.48,WSW,240,0.0,2.0,65,0.00,,,0.00,Weather View 32 v70,2013-02-17 13:56:00,
2013-02-17 05:01:00,-6.9,-15.9,29.48,WSW,240,0.0,1.0,64,0.00,,,0.00,Weather View 32 v70,2013-02-17 14:01:00,
2013-02-17 05:06:00,-6.9,-15.9,29.48,WSW,240,0.0,1.0,64,0.00,,,0.00,Weather View 32 v70,2013-02-17 14:06:00,
2013-02-17 05:11:00,-6.9,-15.9,29.48,WSW,240,0.0,1.0,64,0.00,,,0.00,Weather View 32 v70,2013-02-17 14:11:00,
2013-02-17 05:16:00,-6.9,-15.9,29.48,WSW,240,0.0,1.0,64,0.00,,,0.00,Weather View 32 v70,2013-02-17 14:16:00,
2013-02-17 05:21:00,-7.0,-16.0,29.48,WSW,240,0.0,1.0,64,0.00,,,0.00,Weather View 32 v70,2013-02-17 14:21:00,
2013-02-17 05:26:00,-7.1,-16.0,29.47,WSW,240,0.0,1.0,64,0.00,,,0.00,Weather View 32 v70,2013-02-17 14:26:00,
2013-02-17 05:31:00,-7.1,-16.0,29.48,WSW,240,0.0,1.0,64,0.00,,,0.00,Weather View 32 v70,2013-02-17 14:31:00,
2013-02-17 05:36:00,-7.3,-16.2,29.48,WSW,240,0.0,1.0,64,0.00,,,0.00,Weather View 32 v70,2013-02-17 14:36:00,
2013-02-17 05:41:00,-7.4,-16.6,29.48,WSW,240,1.0,1.0,63,0.00,,,0.00,Weather View 32 v70,2013-02-17 14:41:00,
2013-02-17 05:46:00,-7.5,-16.7,29.48,WSW,240,0.0,1.0,63,0.00,,,0.00,Weather View 32 v70,2013-02-17 14:46:00,
2013-02-17 05:51:00,-7.6,-16.8,29.47,WSW,240,0.0,1.0,63,0.00,,,0.00,Weather View 32 v70,2013-02-17 14:51:00,
2013-02-17 05:56:00,-7.6,-16.5,29.48,WSW,240,0.0,1.0,64,0.00,,,0.00,Weather View 32 v70,2013-02-17 14:56:00,
2013-02-17 06:01:00,-7.6,-16.8,29.48,WSW,240,0.0,1.0,63,0.00,,,0.00,Weather View 32 v70,2013-02-17 15:01:00,
2013-02-17 06:06:00,-7.7,-16.9,29.47,WSW,240,0.0,1.0,63,0.00,,,0.00,Weather View 32 v70,2013-02-17 15:06:00,
2013-02-17 06:11:00,-7.8,-17.0,29.48,WSW,240,0.0,1.0,63,0.00,,,0.00,Weather View 32 v70,2013-02-17 15:11:00,
2013-02-17 06:16:00,-7.8,-17.0,29.47,WSW,240,1.0,1.0,63,0.00,,,0.00,Weather View 32 v70,2013-02-17 15:16:00,
2013-02-17 06:21:00,-7.9,-17.1,29.48,WSW,240,0.0,2.0,63,0.00,,,0.00,Weather View 32 v70,2013-02-17 15:21:00,
2013-02-17 06:26:00,-7.8,-17.0,29.47,WSW,240,0.0,2.0,63,0.00,,,0.00,Weather View 32 v70,2013-02-17 15:26:00,
2013-02-17 06:31:00,-7.8,-17.0,29.47,WSW,240,0.0,2.0,63,0.00,,,0.00,Weather View 32 v70,2013-02-17 15:31:00,
2013-02-17 06:36:00,-7.8,-17.0,29.48,WSW,240,0.0,2.0,63,0.00,,,0.00,Weather View 32 v70,2013-02-17 15:36:00,
2013-02-17 06:41:00,-7.8,-17.0,29.48,WSW,240,0.0,2.0,63,0.00,,,0.00,Weather View 32 v70,2013-02-17 15:41:00,
2013-02-17 06:46:00,-7.7,-16.6,29.48,WSW,240,0.0,2.0,64,0.00,,,0.00,Weather View 32 v70,2013-02-17 15:46:00,
2013-02-17 06:51:00,-7.8,-17.0,29.48,WSW,240,0.0,2.0,63,0.00,,,0.00,Weather View 32 v70,2013-02-17 15:51:00,
2013-02-17 06:56:00,-7.8,-17.0,29.48,WSW,240,0.0,2.0,63,0.00,,,0.00,Weather View 32 v70,2013-02-17 15:56:00,
2013-02-17 07:01:00,-7.7,-16.6,29.48,WSW,240,1.0,2.0,64,0.00,,,0.00,Weather View 32 v70,2013-02-17 16:01:00,
2013-02-17 07:06:00,-7.7,-16.6,29.48,WSW,240,0.0,2.0,64,0.00,,,0.00,Weather View 32 v70,2013-02-17 16:06:00,
2013-02-17 07:11:00,-7.6,-16.5,29.48,WSW,240,0.0,2.0,64,0.00,,,0.00,Weather View 32 v70,2013-02-17 16:11:00,
2013-02-17 07:16:00,-7.6,-16.5,29.48,WSW,240,0.0,2.0,64,0.00,,,0.00,Weather View 32 v70,2013-02-17 16:16:00,
2013-02-17 07:21:00,-7.5,-16.4,29.49,WSW,240,0.0,2.0,64,0.00,,,0.00,Weather View 32 v70,2013-02-17 16:21:00,
2013-02-17 07:26:00,-7.5,-16.4,29.48,WSW,240,0.0,2.0,64,0.00,,,0.00,Weather View 32 v70,2013-02-17 16:26:00,
2013-02-17 07:31:00,-7.5,-16.7,29.48,WSW,240,0.0,2.0,63,0.00,,,0.00,Weather View 32 v70,2013-02-17 16:31:00,
2013-02-17 07:36:00,-7.4,-16.6,29.48,WSW,240,0.0,2.0,63,0.00,,,0.00,Weather View 32 v70,2013-02-17 16:36:00,
2013-02-17 07:41:00,-7.5,-16.7,29.48,WSW,240,0.0,2.0,63,0.00,,,0.00,Weather View 32 v70,2013-02-17 16:41:00,
2013-02-17 07:46:00,-7.5,-16.7,29.48,WSW,240,0.0,2.0,63,0.00,,,0.00,Weather View 32 v70,2013-02-17 16:46:00,
2013-02-17 07:51:00,-7.5,-16.7,29.48,WSW,240,0.0,2.0,63,0.00,,,0.00,Weather View 32 v70,2013-02-17 16:51:00,
2013-02-17 07:56:00,-7.5,-16.7,29.48,WSW,240,0.0,2.0,63,0.00,,,0.00,Weather View 32 v70,2013-02-17 16:56:00,
2013-02-17 08:01:00,-7.6,-16.8,29.48,WSW,240,0.0,2.0,63,0.00,,,0.00,Weather View 32 v70,2013-02-17 17:01:00,
2013-02-17 08:06:00,-7.6,-16.8,29.48,WSW,240,0.0,2.0,63,0.00,,,0.00,Weather View 32 v70,2013-02-17 17:06:00,
2013-02-17 08:11:00,-7.8,-17.0,29.48,WSW,240,0.0,2.0,63,0.00,,,0.00,Weather View 32 v70,2013-02-17 17:11:00,
2013-02-17 08:16:00,-7.9,-17.1,29.47,WSW,240,0.0,2.0,63,0.00,,,0.00,Weather View 32 v70,2013-02-17 17:16:00,
2013-02-17 08:21:00,-8.0,-17.2,29.47,WSW,240,0.0,1.0,63,0.00,,,0.00,Weather View 32 v70,2013-02-17 17:21:00,
2013-02-17 08:26:00,-8.2,-17.4,29.47,WSW,240,0.0,1.0,63,0.00,,,0.00,Weather View 32 v70,2013-02-17 17:26:00,
2013-02-17 08:31:00,-8.4,-17.6,29.48,WSW,240,0.0,1.0,63,0.00,,,0.00,Weather View 32 v70,2013-02-17 17:31:00,
2013-02-17 08:36:00,-8.6,-18.1,29.48,WSW,240,0.0,1.0,62,0.00,,,0.00,Weather View 32 v70,2013-02-17 17:36:00,
2013-02-17 08:41:00,-9.0,-18.8,29.48,WSW,240,0.0,1.0,61,0.00,,,0.00,Weather View 32 v70,2013-02-17 17:41:00,
2013-02-17 08:46:00,-9.3,-19.1,29.49,WSW,240,0.0,1.0,61,0.00,,,0.00,Weather View 32 v70,2013-02-17 17:46:00,
2013-02-17 08:51:00,-9.7,-19.5,29.48,WSW,240,0.0,0.0,61,0.00,,,0.00,Weather View 32 v70,2013-02-17 17:51:00,
2013-02-17 08:56:00,-10.0,-19.4,29.49,WSW,240,0.0,0.0,62,0.00,,,0.00,Weather View 32 v70,2013-02-17 17:56:00,
2013-02-17 09:01:00,-10.2,-19.9,29.49,WSW,240,0.0,0.0,61,0.00,,,0.00,Weather View 32 v70,2013-02-17 18:01:00,
2013-02-17 09:06:00,-10.4,-20.1,29.49,WSW,240,0.0,0.0,61,0.00,,,0.00,Weather View 32 v70,2013-02-17 18:06:00,
2013-02-17 09:11:00,-10.6,-20.3,29.50,WSW,240,0.0,0.0,61,0.00,,,0.00,Weather View 32 v70,2013-02-17 18:11:00,
2013-02-17 09:16:00,-10.8,-20.8,29.49,WSW,240,0.0,0.0,60,0.00,,,0.00,Weather View 32 v70,2013-02-17 18:16:00,
2013-02-17 09:21:00,-11.0,-20.7,29.50,WSW,240,0.0,0.0,61,0.00,,,0.00,Weather View 32 v70,2013-02-17 18:21:00,
2013-02-17 09:26:00,-11.2,-21.2,29.50,WSW,240,0.0,0.0,60,0.00,,,0.00,Weather View 32 v70,2013-02-17 18:26:00,
2013-02-17 09:31:00,-11.4,-21.4,29.49,WSW,240,0.0,0.0,60,0.00,,,0.00,Weather View 32 v70,2013-02-17 18:31:00,
2013-02-17 09:36:00,-11.6,-21.6,29.50,WSW,240,0.0,0.0,60,0.00,,,0.00,Weather View 32 v70,2013-02-17 18:36:00,
2013-02-17 09:41:00,-11.6,-21.6,29.50,WSW,240,0.0,0.0,60,0.00,,,0.00,Weather View 32 v70,2013-02-17 18:41:00,
2013-02-17 09:46:00,-11.5,-21.2,29.50,WSW,240,0.0,0.0,61,0.00,,,0.00,Weather View 32 v70,2013-02-17 18:46:00,
2013-02-17 09:51:00,-11.5,-21.2,29.50,WSW,240,0.0,0.0,61,0.00,,,0.00,Weather View 32 v70,2013-02-17 18:51:00,
2013-02-17 09:56:00,-11.3,-21.0,29.50,WSW,240,0.0,0.0,61,0.00,,,0.00,Weather View 32 v70,2013-02-17 18:56:00,
2013-02-17 10:01:00,-11.0,-20.4,29.50,WSW,240,0.0,0.0,62,0.00,,,0.00,Weather View 32 v70,2013-02-17 19:01:00,
2013-02-17 10:06:00,-10.6,-19.7,29.50,WSW,240,0.0,0.0,63,0.00,,,0.00,Weather View 32 v70,2013-02-17 19:06:00,
2013-02-17 10:11:00,-10.2,-19.3,29.50,WSW,240,0.0,0.0,63,0.00,,,0.00,Weather View 32 v70,2013-02-17 19:11:00,
2013-02-17 10:16:00,-9.7,-18.5,29.50,WSW,240,0.0,0.0,64,0.00,,,0.00,Weather View 32 v70,2013-02-17 19:16:00,
2013-02-17 10:21:00,-9.2,-17.8,29.50,WSW,240,0.0,0.0,65,0.00,,,0.00,Weather View 32 v70,2013-02-17 19:21:00,
2013-02-17 10:26:00,-8.7,-17.3,29.50,WSW,240,0.0,0.0,65,0.00,,,0.00,Weather View 32 v70,2013-02-17 19:26:00,
2013-02-17 10:31:00,-8.3,-16.9,29.50,WSW,240,0.0,1.0,65,0.00,,,0.00,Weather View 32 v70,2013-02-17 19:31:00,
2013-02-17 10:36:00,-8.1,-16.7,29.50,WSW,240,0.0,1.0,65,0.00,,,0.00,Weather View 32 v70,2013-02-17 19:36:00,
2013-02-17 10:41:00,-7.8,-16.7,29.51,WSW,240,0.0,1.0,64,0.00,,,0.00,Weather View 32 v70,2013-02-17 19:41:00,
2013-02-17 10:46:00,-7.7,-16.6,29.51,WSW,240,0.0,1.0,64,0.00,,,0.00,Weather View 32 v70,2013-02-17 19:46:00,
2013-02-17 10:51:00,-7.5,-16.4,29.51,WSW,240,0.0,1.0,64,0.00,,,0.00,Weather View 32 v70,2013-02-17 19:51:00,
2013-02-17 10:56:00,-7.3,-16.2,29.51,WSW,240,0.0,1.0,64,0.00,,,0.00,Weather View 32 v70,2013-02-17 19:56:00,
2013-02-17 11:01:00,-7.1,-16.0,29.51,WSW,240,3.0,3.0,64,0.00,,,0.00,Weather View 32 v70,2013-02-17 20:01:00,
2013-02-17 11:06:00,-6.9,-15.9,29.51,WSW,240,0.0,3.0,64,0.00,,,0.00,Weather View 32 v70,2013-02-17 20:06:00,
2013-02-17 11:11:00,-6.7,-15.7,29.51,WSW,240,0.0,3.0,64,0.00,,,0.00,Weather View 32 v70,2013-02-17 20:11:00,
2013-02-17 11:16:00,-6.5,-15.5,29.51,WSW,240,0.0,3.0,64,0.00,,,0.00,Weather View 32 v70,2013-02-17 20:16:00,
2013-02-17 11:21:00,-6.2,-15.2,29.51,WSW,240,0.0,3.0,64,0.00,,,0.00,Weather View 32 v70,2013-02-17 20:21:00,
2013-02-17 11:26:00,-6.1,-15.4,29.51,WSW,240,0.0,3.0,63,0.00,,,0.00,Weather View 32 v70,2013-02-17 20:26:00,
2013-02-17 11:31:00,-6.0,-15.3,29.51,WSW,240,0.0,3.0,63,0.00,,,0.00,Weather View 32 v70,2013-02-17 20:31:00,
2013-02-17 11:36:00,-5.8,-15.1,29.51,WSW,240,0.0,3.0,63,0.00,,,0.00,Weather View 32 v70,2013-02-17 20:36:00,
2013-02-17 11:41:00,-5.8,-15.1,29.52,WSW,240,0.0,3.0,63,0.00,,,0.00,Weather View 32 v70,2013-02-17 20:41:00,
2013-02-17 11:46:00,-5.6,-14.9,29.52,WSW,240,0.0,3.0,63,0.00,,,0.00,Weather View 32 v70,2013-02-17 20:46:00,
2013-02-17 11:51:00,-5.6,-14.9,29.52,WSW,240,0.0,3.0,63,0.00,,,0.00,Weather View 32 v70,2013-02-17 20:51:00,
2013-02-17 11:56:00,-5.5,-14.8,29.52,WSW,240,0.0,3.0,63,0.00,,,0.00,Weather View 32 v70,2013-02-17 20:56:00,
2013-02-17 12:01:00,-5.4,-15.0,29.52,WSW,240,0.0,3.0,62,0.00,,,0.00,Weather View 32 v70,2013-02-17 21:01:00,
2013-02-17 12:06:00,-5.2,-14.9,29.52,WSW,240,0.0,3.0,62,0.00,,,0.00,Weather View 32 v70,2013-02-17 21:06:00,
2013-02-17 12:11:00,-5.1,-14.8,29.53,WSW,240,0.0,3.0,62,0.00,,,0.00,Weather View 32 v70,2013-02-17 21:11:00,
2013-02-17 12:16:00,-4.9,-14.6,29.52,WSW,240,1.0,3.0,62,0.00,,,0.00,Weather View 32 v70,2013-02-17 21:16:00,
2013-02-17 12:21:00,-4.9,-14.6,29.53,WSW,240,0.0,3.0,62,0.00,,,0.00,Weather View 32 v70,2013-02-17 21:21:00,
2013-02-17 12:26:00,-4.9,-14.6,29.53,WSW,240,0.0,3.0,62,0.00,,,0.00,Weather View 32 v70,2013-02-17 21:26:00,
2013-02-17 12:31:00,-4.8,-14.5,29.53,WSW,240,1.0,3.0,62,0.00,,,0.00,Weather View 32 v70,2013-02-17 21:31:00,
2013-02-17 12:36:00,-4.8,-14.5,29.53,WSW,240,0.0,3.0,62,0.00,,,0.00,Weather View 32 v70,2013-02-17 21:36:00,
2013-02-17 12:41:00,-4.8,-14.5,29.54,WSW,240,0.0,3.0,62,0.00,,,0.00,Weather View 32 v70,2013-02-17 21:41:00,
2013-02-17 12:46:00,-4.8,-14.5,29.53,WSW,240,0.0,3.0,62,0.00,,,0.00,Weather View 32 v70,2013-02-17 21:46:00,
2013-02-17 12:51:00,-4.8,-14.5,29.54,WSW,240,3.0,3.0,62,0.00,,,0.00,Weather View 32 v70,2013-02-17 21:51:00,
2013-02-17 12:56:00,-4.9,-14.6,29.54,WSW,240,0.0,3.0,62,0.00,,,0.00,Weather View 32 v70,2013-02-17 21:56:00,
2013-02-17 13:01:00,-4.8,-14.5,29.55,WSW,240,0.0,3.0,62,0.00,,,0.00,Weather View 32 v70,2013-02-17 22:01:00,
2013-02-17 13:06:00,-4.6,-14.3,29.54,WSW,240,0.0,3.0,62,0.00,,,0.00,Weather View 32 v70,2013-02-17 22:06:00,
2013-02-17 13:11:00,-4.6,-14.6,29.54,WSW,240,0.0,3.0,61,0.00,,,0.00,Weather View 32 v70,2013-02-17 22:11:00,
2013-02-17 13:16:00,-4.5,-14.2,29.54,WSW,240,0.0,3.0,62,0.00,,,0.00,Weather View 32 v70,2013-02-17 22:16:00,
2013-02-17 13:21:00,-4.4,-14.4,29.55,WSW,240,0.0,3.0,61,0.00,,,0.00,Weather View 32 v70,2013-02-17 22:21:00,
2013-02-17 13:26:00,-4.3,-14.3,29.55,WSW,240,0.0,3.0,61,0.00,,,0.00,Weather View 32 v70,2013-02-17 22:26:00,
2013-02-17 13:31:00,-4.2,-14.2,29.55,WSW,240,0.0,3.0,61,0.00,,,0.00,Weather View 32 v70,2013-02-17 22:31:00,
2013-02-17 13:36:00,-4.2,-14.2,29.56,WSW,240,0.0,3.0,61,0.00,,,0.00,Weather View 32 v70,2013-02-17 22:36:00,
2013-02-17 13:41:00,-4.2,-14.2,29.56,WSW,240,0.0,3.0,61,0.00,,,0.00,Weather View 32 v70,2013-02-17 22:41:00,
2013-02-17 13:46:00,-4.2,-14.2,29.56,WSW,240,1.0,3.0,61,0.00,,,0.00,Weather View 32 v70,2013-02-17 22:46:00,
2013-02-17 13:51:00,-4.2,-14.2,29.56,WSW,240,1.0,3.0,61,0.00,,,0.00,Weather View 32 v70,2013-02-17 22:51:00,
2013-02-17 13:56:00,-4.2,-14.2,29.56,WSW,240,0.0,2.0,61,0.00,,,0.00,Weather View 32 v70,2013-02-17 22:56:00,
2013-02-17 14:01:00,-4.2,-14.2,29.56,WSW,240,0.0,4.0,61,0.00,,,0.00,Weather View 32 v70,2013-02-17 23:01:00,
2013-02-17 14:06:00,-4.2,-13.9,29.56,WSW,240,1.0,4.0,62,0.00,,,0.00,Weather View 32 v70,2013-02-17 23:06:00,
2013-02-17 14:11:00,-4.1,-13.8,29.57,WSW,240,1.0,4.0,62,0.00,,,0.00,Weather View 32 v70,2013-02-17 23:11:00,
2013-02-17 14:16:00,-4.0,-13.7,29.57,WSW,240,0.0,4.0,62,0.00,,,0.00,Weather View 32 v70,2013-02-17 23:16:00,
2013-02-17 14:21:00,-3.9,-13.6,29.57,WSW,240,1.0,4.0,62,0.00,,,0.00,Weather View 32 v70,2013-02-17 23:21:00,
2013-02-17 14:26:00,-3.8,-13.5,29.57,WSW,240,0.0,4.0,62,0.00,,,0.00,Weather View 32 v70,2013-02-17 23:26:00,
2013-02-17 14:31:00,-3.8,-13.5,29.57,WSW,240,1.0,4.0,62,0.00,,,0.00,Weather View 32 v70,2013-02-17 23:31:00,
2013-02-17 14:36:00,-3.8,-13.5,29.57,WSW,240,0.0,4.0,62,0.00,,,0.00,Weather View 32 v70,2013-02-17 23:36:00,
2013-02-17 14:41:00,-3.7,-13.4,29.57,WSW,240,0.0,4.0,62,0.00,,,0.00,Weather View 32 v70,2013-02-17 23:41:00,
2013-02-17 14:46:00,-3.6,-13.3,29.57,WSW,240,0.0,4.0,62,0.00,,,0.00,Weather View 32 v70,2013-02-17 23:46:00,
2013-02-17 14:51:00,-3.5,-13.2,29.57,WSW,240,0.0,4.0,62,0.00,,,0.00,Weather View 32 v70,2013-02-17 23:51:00,
2013-02-17 14:56:00,-3.4,-13.1,29.58,WSW,240,0.0,4.0,62,0.00,,,0.00,Weather View 32 v70,2013-02-17 23:56:00,
2013-02-17 15:01:00,-3.3,-13.1,29.58,WSW,240,0.0,2.0,62,0.00,,,0.00,Weather View 32 v70,2013-02-18 00:01:00,
2013-02-17 15:06:00,-3.2,-13.0,29.58,WSW,240,0.0,2.0,62,0.00,,,0.00,Weather View 32 v70,2013-02-18 00:06:00,
2013-02-17 15:11:00,-3.2,-13.0,29.58,WSW,240,0.0,2.0,62,0.00,,,0.00,Weather View 32 v70,2013-02-18 00:11:00,
2013-02-17 15:16:00,-3.1,-12.9,29.58,WSW,240,0.0,2.0,62,0.00,,,0.00,Weather View 32 v70,2013-02-18 00:16:00,
2013-02-17 15:21:00,-3.1,-12.9,29.58,WSW,240,0.0,2.0,62,0.00,,,0.00,Weather View 32 v70,2013-02-18 00:21:00,
2013-02-17 15:26:00,-3.0,-12.8,29.58,WSW,240,0.0,2.0,62,0.00,,,0.00,Weather View 32 v70,2013-02-18 00:26:00,
2013-02-17 15:31:00,-2.9,-12.4,29.58,WSW,240,0.0,2.0,63,0.00,,,0.00,Weather View 32 v70,2013-02-18 00:31:00,
2013-02-17 15:36:00,-2.8,-12.3,29.58,WSW,240,0.0,1.0,63,0.00,,,0.00,Weather View 32 v70,2013-02-18 00:36:00,
2013-02-17 15:41:00,-2.7,-12.2,29.59,WSW,240,0.0,1.0,63,0.00,,,0.00,Weather View 32 v70,2013-02-18 00:41:00,
2013-02-17 15:46:00,-2.7,-12.2,29.59,WSW,240,0.0,1.0,63,0.00,,,0.00,Weather View 32 v70,2013-02-18 00:46:00,
2013-02-17 15:51:00,-2.6,-12.1,29.59,WSW,240,0.0,1.0,63,0.00,,,0.00,Weather View 32 v70,2013-02-18 00:51:00,
2013-02-17 15:56:00,-2.6,-12.1,29.60,WSW,240,0.0,1.0,63,0.00,,,0.00,Weather View 32 v70,2013-02-18 00:56:00,
2013-02-17 16:01:00,-2.6,-12.1,29.60,WSW,240,0.0,1.0,63,0.00,,,0.00,Weather View 32 v70,2013-02-18 01:01:00,
2013-02-17 16:06:00,-2.5,-12.0,29.60,WSW,240,0.0,1.0,63,0.00,,,0.00,Weather View 32 v70,2013-02-18 01:06:00,
2013-02-17 16:11:00,-2.5,-11.7,29.60,WSW,240,0.0,1.0,64,0.00,,,0.00,Weather View 32 v70,2013-02-18 01:11:00,
2013-02-17 16:16:00,-2.4,-11.6,29.60,WSW,240,0.0,1.0,64,0.00,,,0.00,Weather View 32 v70,2013-02-18 01:16:00,
2013-02-17 16:21:00,-2.4,-11.6,29.60,WSW,240,0.0,1.0,64,0.00,,,0.00,Weather View 32 v70,2013-02-18 01:21:00,
2013-02-17 16:26:00,-2.4,-11.6,29.60,WSW,240,0.0,1.0,64,0.00,,,0.00,Weather View 32 v70,2013-02-18 01:26:00,
2013-02-17 16:30:00,-2.3,-11.5,29.61,WSW,240,0.0,1.0,64,0.00,,,0.00,Weather View 32 v70,2013-02-18 01:30:00,
2013-02-17 16:36:00,-2.2,-11.1,29.61,WSW,240,0.0,1.0,65,0.00,,,0.00,Weather View 32 v70,2013-02-18 01:36:00,
2013-02-17 16:40:00,-2.2,-11.1,29.61,WSW,240,0.0,1.0,65,0.00,,,0.00,Weather View 32 v70,2013-02-18 01:40:00,
2013-02-17 16:46:00,-2.1,-11.0,29.61,WSW,240,0.0,2.0,65,0.00,,,0.00,Weather View 32 v70,2013-02-18 01:46:00,
2013-02-17 16:51:00,-2.1,-11.0,29.61,WSW,240,0.0,2.0,65,0.00,,,0.00,Weather View 32 v70,2013-02-18 01:51:00,
2013-02-17 16:56:00,-2.2,-11.1,29.61,WSW,240,0.0,2.0,65,0.00,,,0.00,Weather View 32 v70,2013-02-18 01:56:00,
2013-02-17 17:01:00,-2.3,-11.5,29.61,WSW,240,0.0,2.0,64,0.00,,,0.00,Weather View 32 v70,2013-02-18 02:01:00,
2013-02-17 17:06:00,-2.4,-11.2,29.62,WSW,240,0.0,2.0,65,0.00,,,0.00,Weather View 32 v70,2013-02-18 02:06:00,
2013-02-17 17:11:00,-2.4,-11.2,29.62,WSW,240,0.0,2.0,65,0.00,,,0.00,Weather View 32 v70,2013-02-18 02:11:00,
2013-02-17 17:16:00,-2.5,-11.7,29.62,WSW,240,0.0,3.0,64,0.00,,,0.00,Weather View 32 v70,2013-02-18 02:16:00,
2013-02-17 17:21:00,-2.6,-11.4,29.62,WSW,240,1.0,3.0,65,0.00,,,0.00,Weather View 32 v70,2013-02-18 02:21:00,
2013-02-17 17:26:00,-2.6,-11.8,29.63,WSW,240,0.0,3.0,64,0.00,,,0.00,Weather View 32 v70,2013-02-18 02:26:00,
2013-02-17 17:31:00,-2.6,-11.4,29.63,WSW,240,0.0,4.0,65,0.00,,,0.00,Weather View 32 v70,2013-02-18 02:31:00,
2013-02-17 17:36:00,-2.7,-11.8,29.63,WSW,240,0.0,4.0,64,0.00,,,0.00,Weather View 32 v70,2013-02-18 02:36:00,
2013-02-17 17:41:00,-2.8,-11.9,29.63,WSW,240,0.0,4.0,64,0.00,,,0.00,Weather View 32 v70,2013-02-18 02:41:00,
2013-02-17 17:46:00,-2.8,-11.6,29.64,WSW,240,0.0,4.0,65,0.00,,,0.00,Weather View 32 v70,2013-02-18 02:46:00,
2013-02-17 17:51:00,-2.9,-11.7,29.64,WSW,240,0.0,4.0,65,0.00,,,0.00,Weather View 32 v70,2013-02-18 02:51:00,
2013-02-17 17:56:00,-2.9,-12.0,29.64,WSW,240,0.0,4.0,64,0.00,,,0.00,Weather View 32 v70,2013-02-18 02:56:00,
2013-02-17 18:01:00,-2.9,-11.7,29.64,WSW,240,1.0,4.0,65,0.00,,,0.00,Weather View 32 v70,2013-02-18 03:01:00,
2013-02-17 18:06:00,-2.9,-11.7,29.65,WSW,240,1.0,4.0,65,0.00,,,0.00,Weather View 32 v70,2013-02-18 03:06:00,
2013-02-17 18:11:00,-3.0,-11.8,29.65,WSW,240,3.0,4.0,65,0.00,,,0.00,Weather View 32 v70,2013-02-18 03:11:00,
2013-02-17 18:15:00,-3.0,-11.8,29.65,WSW,240,0.0,7.0,65,0.00,,,0.00,Weather View 32 v70,2013-02-18 03:15:00,
2013-02-17 18:20:00,-3.0,-12.1,29.65,WSW,241,2.0,7.0,64,0.00,,,0.00,Weather View 32 v70,2013-02-18 03:20:00,
2013-02-17 18:25:00,-3.0,-12.1,29.66,WSW,241,2.0,7.0,64,0.00,,,0.00,Weather View 32 v70,2013-02-18 03:25:00,
2013-02-17 18:31:00,-3.0,-12.1,29.66,WSW,240,1.0,7.0,64,0.00,,,0.00,Weather View 32 v70,2013-02-18 03:31:00,
2013-02-17 18:36:00,-3.0,-12.1,29.66,WSW,240,1.0,7.0,64,0.00,,,0.00,Weather View 32 v70,2013-02-18 03:36:00,
2013-02-17 18:41:00,-3.1,-12.2,29.66,WSW,240,2.0,7.0,64,0.00,,,0.00,Weather View 32 v70,2013-02-18 03:41:00,
2013-02-17 18:46:00,-3.1,-11.9,29.67,WSW,240,1.0,7.0,65,0.00,,,0.00,Weather View 32 v70,2013-02-18 03:46:00,
2013-02-17 18:51:00,-3.1,-11.9,29.67,WSW,241,1.0,7.0,65,0.00,,,0.00,Weather View 32 v70,2013-02-18 03:51:00,
2013-02-17 18:56:00,-3.1,-12.2,29.67,WSW,240,3.0,7.0,64,0.00,,,0.00,Weather View 32 v70,2013-02-18 03:56:00,
2013-02-17 19:01:00,-3.2,-12.3,29.68,WSW,240,1.0,7.0,64,0.00,,,0.00,Weather View 32 v70,2013-02-18 04:01:00,
2013-02-17 19:06:00,-3.2,-12.0,29.68,WSW,240,0.0,7.0,65,0.00,,,0.00,Weather View 32 v70,2013-02-18 04:06:00,
2013-02-17 19:11:00,-3.2,-12.0,29.68,WSW,241,0.0,7.0,65,0.00,,,0.00,Weather View 32 v70,2013-02-18 04:11:00,
2013-02-17 19:16:00,-3.3,-12.1,29.68,WSW,240,0.0,4.0,65,0.00,,,0.00,Weather View 32 v70,2013-02-18 04:16:00,
2013-02-17 19:21:00,-3.2,-12.3,29.69,WSW,241,1.0,4.0,64,0.00,,,0.00,Weather View 32 v70,2013-02-18 04:21:00,
2013-02-17 19:26:00,-3.3,-12.4,29.69,WSW,240,1.0,5.0,64,0.00,,,0.00,Weather View 32 v70,2013-02-18 04:26:00,
2013-02-17 19:30:00,-3.3,-12.4,29.69,WSW,241,0.0,5.0,64,0.00,,,0.00,Weather View 32 v70,2013-02-18 04:30:00,
2013-02-17 19:31:00,-3.4,-12.2,29.69,WSW,240,1.0,5.0,65,0.00,,,0.00,Weather View 32 v70,2013-02-18 04:31:00,
2013-02-17 19:36:00,-3.4,-12.5,29.70,WSW,241,0.0,5.0,64,0.00,,,0.00,Weather View 32 v70,2013-02-18 04:36:00,
2013-02-17 19:41:00,-3.4,-12.2,29.69,WSW,241,1.0,5.0,65,0.00,,,0.00,Weather View 32 v70,2013-02-18 04:41:00,
2013-02-17 19:46:00,-3.4,-12.2,29.69,WSW,241,1.0,5.0,65,0.00,,,0.00,Weather View 32 v70,2013-02-18 04:46:00,
2013-02-17 19:50:00,-3.4,-12.2,29.70,WSW,241,2.0,5.0,65,0.00,,,0.00,Weather View 32 v70,2013-02-18 04:50:00,
2013-02-17 19:56:00,-3.4,-12.2,29.70,WSW,255,2.0,6.0,65,0.00,,,0.00,Weather View 32 v70,2013-02-18 04:56:00,
2013-02-17 20:00:00,-3.5,-12.6,29.70,WSW,255,1.0,6.0,64,0.00,,,0.00,Weather View 32 v70,2013-02-18 05:00:00,
2013-02-17 20:05:00,-3.6,-12.7,29.70,WSW,255,2.0,6.0,64,0.00,,,0.00,Weather View 32 v70,2013-02-18 05:05:00,
2013-02-17 20:10:00,-3.6,-12.7,29.71,WSW,255,0.0,6.0,64,0.00,,,0.00,Weather View 32 v70,2013-02-18 05:10:00,
2013-02-17 20:15:00,-3.7,-12.8,29.71,WSW,255,2.0,6.0,64,0.00,,,0.00,Weather View 32 v70,2013-02-18 05:15:00,
2013-02-17 20:20:00,-3.7,-12.8,29.71,WSW,255,0.0,6.0,64,0.00,,,0.00,Weather View 32 v70,2013-02-18 05:20:00,
2013-02-17 20:25:00,-3.7,-12.8,29.72,WSW,255,2.0,6.0,64,0.00,,,0.00,Weather View 32 v70,2013-02-18 05:25:00,
2013-02-17 20:30:00,-3.7,-12.8,29.72,WSW,255,1.0,6.0,64,0.00,,,0.00,Weather View 32 v70,2013-02-18 05:30:00,
2013-02-17 20:35:00,-3.8,-12.9,29.72,WSW,255,2.0,6.0,64,0.00,,,0.00,Weather View 32 v70,2013-02-18 05:35:00,
2013-02-17 20:40:00,-3.9,-13.0,29.72,WSW,255,2.0,6.0,64,0.00,,,0.00,Weather View 32 v70,2013-02-18 05:40:00,
2013-02-17 20:45:00,-3.8,-12.9,29.72,WSW,255,0.0,6.0,64,0.00,,,0.00,Weather View 32 v70,2013-02-18 05:45:00,
2013-02-17 20:50:00,-3.9,-13.0,29.72,WSW,255,0.0,6.0,64,0.00,,,0.00,Weather View 32 v70,2013-02-18 05:50:00,
2013-02-17 20:55:00,-4.0,-13.1,29.72,WSW,255,1.0,4.0,64,0.00,,,0.00,Weather View 32 v70,2013-02-18 05:55:00,
2013-02-17 21:00:00,-4.0,-13.1,29.73,WSW,255,0.0,5.0,64,0.00,,,0.00,Weather View 32 v70,2013-02-18 06:00:00,
2013-02-17 21:05:00,-4.1,-13.2,29.73,WSW,255,2.0,5.0,64,0.00,,,0.00,Weather View 32 v70,2013-02-18 06:05:00,
2013-02-17 21:10:00,-4.0,-13.1,29.73,WSW,255,0.0,5.0,64,0.00,,,0.00,Weather View 32 v70,2013-02-18 06:10:00,
2013-02-17 21:15:00,-4.2,-13.3,29.73,WSW,255,0.0,5.0,64,0.00,,,0.00,Weather View 32 v70,2013-02-18 06:15:00,
2013-02-17 21:20:00,-4.2,-13.3,29.74,WSW,255,0.0,5.0,64,0.00,,,0.00,Weather View 32 v70,2013-02-18 06:20:00,
2013-02-17 21:25:00,-4.3,-13.4,29.74,WSW,255,2.0,5.0,64,0.00,,,0.00,Weather View 32 v70,2013-02-18 06:25:00,
2013-02-17 21:30:00,-4.5,-13.6,29.74,WSW,255,2.0,5.0,64,0.00,,,0.00,Weather View 32 v70,2013-02-18 06:30:00,
2013-02-17 21:35:00,-4.6,-13.7,29.74,WSW,255,0.0,5.0,64,0.00,,,0.00,Weather View 32 v70,2013-02-18 06:35:00,
2013-02-17 21:40:00,-4.8,-13.9,29.75,WSW,255,0.0,5.0,64,0.00,,,0.00,Weather View 32 v70,2013-02-18 06:40:00,
2013-02-17 21:45:00,-5.0,-14.0,29.75,WSW,255,0.0,5.0,64,0.00,,,0.00,Weather View 32 v70,2013-02-18 06:45:00,
2013-02-17 21:50:00,-5.2,-14.5,29.75,WSW,255,0.0,5.0,63,0.00,,,0.00,Weather View 32 v70,2013-02-18 06:50:00,
2013-02-17 21:55:00,-5.3,-14.6,29.76,WSW,255,0.0,5.0,63,0.00,,,0.00,Weather View 32 v70,2013-02-18 06:55:00,
2013-02-17 22:00:00,-5.4,-14.7,29.76,WSW,255,0.0,4.0,63,0.00,,,0.00,Weather View 32 v70,2013-02-18 07:00:00,
2013-02-17 22:05:00,-5.5,-14.8,29.76,WSW,255,1.0,4.0,63,0.00,,,0.00,Weather View 32 v70,2013-02-18 07:05:00,
2013-02-17 22:10:00,-5.4,-14.4,29.76,WSW,255,0.0,4.0,64,0.00,,,0.00,Weather View 32 v70,2013-02-18 07:10:00,
2013-02-17 22:15:00,-5.4,-14.4,29.76,WSW,255,1.0,4.0,64,0.00,,,0.00,Weather View 32 v70,2013-02-18 07:15:00,
2013-02-17 22:20:00,-5.5,-14.5,29.77,WSW,255,0.0,4.0,64,0.00,,,0.00,Weather View 32 v70,2013-02-18 07:20:00,
2013-02-17 22:25:00,-5.6,-14.9,29.77,WSW,255,1.0,4.0,63,0.00,,,0.00,Weather View 32 v70,2013-02-18 07:25:00,
2013-02-17 22:30:00,-5.7,-15.0,29.77,WSW,255,0.0,4.0,63,0.00,,,0.00,Weather View 32 v70,2013-02-18 07:30:00,
2013-02-17 22:35:00,-5.7,-15.0,29.77,WSW,255,0.0,4.0,63,0.00,,,0.00,Weather View 32 v70,2013-02-18 07:35:00,
2013-02-17 22:40:00,-5.7,-15.3,29.77,WSW,255,0.0,4.0,62,0.00,,,0.00,Weather View 32 v70,2013-02-18 07:40:00,
2013-02-17 22:45:00,-5.9,-15.5,29.77,WSW,255,0.0,4.0,62,0.00,,,0.00,Weather View 32 v70,2013-02-18 07:45:00,
2013-02-17 22:50:00,-6.0,-15.6,29.78,WSW,255,0.0,4.0,62,0.00,,,0.00,Weather View 32 v70,2013-02-18 07:50:00,
2013-02-17 22:55:00,-6.2,-15.8,29.78,WSW,255,0.0,4.0,62,0.00,,,0.00,Weather View 32 v70,2013-02-18 07:55:00,
2013-02-17 23:00:00,-6.5,-16.1,29.78,WSW,255,0.0,4.0,62,0.00,,,0.00,Weather View 32 v70,2013-02-18 08:00:00,
2013-02-17 23:05:00,-6.8,-16.4,29.79,WSW,255,0.0,4.0,62,0.00,,,0.00,Weather View 32 v70,2013-02-18 08:05:00,
2013-02-17 23:10:00,-7.0,-16.6,29.79,WSW,255,0.0,3.0,62,0.00,,,0.00,Weather View 32 v70,2013-02-18 08:10:00,
2013-02-17 23:15:00,-7.3,-16.9,29.79,WSW,255,0.0,3.0,62,0.00,,,0.00,Weather View 32 v70,2013-02-18 08:15:00,
2013-02-17 23:20:00,-7.6,-17.1,29.79,WSW,255,0.0,3.0,62,0.00,,,0.00,Weather View 32 v70,2013-02-18 08:20:00,
2013-02-17 23:25:00,-7.8,-17.3,29.79,WSW,255,0.0,3.0,62,0.00,,,0.00,Weather View 32 v70,2013-02-18 08:25:00,
2013-02-17 23:30:00,-8.0,-17.5,29.79,WSW,255,0.0,2.0,62,0.00,,,0.00,Weather View 32 v70,2013-02-18 08:30:00,
2013-02-17 23:35:00,-8.1,-17.6,29.80,WSW,255,0.0,2.0,62,0.00,,,0.00,Weather View 32 v70,2013-02-18 08:35:00,
2013-02-17 23:40:00,-8.0,-17.2,29.80,WSW,255,0.0,2.0,63,0.00,,,0.00,Weather View 32 v70,2013-02-18 08:40:00,
2013-02-17 23:45:00,-7.7,-16.6,29.80,WSW,255,0.0,1.0,64,0.00,,,0.00,Weather View 32 v70,2013-02-18 08:45:00,
2013-02-17 23:50:00,-7.3,-16.2,29.80,WSW,255,0.0,1.0,64,0.00,,,0.00,Weather View 32 v70,2013-02-18 08:50:00,
2013-02-17 23:55:00,-7.2,-16.5,29.81,WSW,255,0.0,1.0,63,0.00,,,0.00,Weather View 32 v70,2013-02-18 08:55:00,